O'Neill, NE

10:43 AM CDT on September 25, 2017 (GMT -0500)
The O'Neill Municipal-Baker

Weather History for KONL - March, 2014

Change the Weather History Date:

Wednesday, March 26, 2014

  Actual Average Record
Temperature  
Mean Temperature 50 °F -  
Max Temperature 70 °F 52 °F 85 °F (1989)
Min Temperature 30 °F 27 °F 0 °F (1965)
Degree Days  
Heating Degree Days 15    
Moisture  
Dew Point 23 °F    
Average Humidity 44    
Maximum Humidity 74    
Minimum Humidity 19    
Precipitation  
Precipitation 0.00 in - - ()
Sea Level Pressure  
Sea Level Pressure 29.58 in    
Wind  
Wind Speed 19 mph (South)    
Max Wind Speed 31 mph    
Max Gust Speed 38 mph    
Visibility 10 miles    
Events Thunderstorm    
Averages and records for this station are not official NWS values.
T = Trace of Precipitation, MM = Missing Value Source: NWS Daily Summary

Daily Weather History Graph

Daily Weather History Graph

Search for Another Location

Airport or City:

Trip Planner

Search our weather history database for the weather conditions in past years. The results will help you decide how hot, cold, wet, or windy it might be!

Date:

Astronomy

Mar. 26, 2014 Rise Set
Actual Time 7:27 AM CDT 7:53 PM CDT
Civil Twilight 6:59 AM CDT 8:22 PM CDT
Nautical Twilight 6:26 AM CDT 8:55 PM CDT
Astronomical Twilight 5:52 AM CDT 9:29 PM CDT
Moon 4:42 AM CDT (3/26) 3:29 PM CDT (3/26)
Length of Visible Light 13h 22m
Length of Day
12h 26m
Waning Crescent, 21% of the Moon is Illuminated
Mar 26
Waning Crescent
Mar 30
New
Apr 7
First Quarter
Apr 15
Full
Apr 22
Last Quarter

Hourly Weather History & Observations

Time (CDT) Temp. Windchill Dew Point Humidity Pressure Visibility Wind Dir Wind Speed Gust Speed Precip Events Conditions
12:15 AM 30.9 °F 20.7 °F 10.2 °F 42% 29.97 in 10.0 mi SSE 13.8 mph - N/A   Clear
12:35 AM 31.1 °F 20.1 °F 9.7 °F 41% 29.95 in 10.0 mi SSE 16.1 mph 23.0 mph N/A   Clear
12:55 AM 31.1 °F 19.3 °F 9.1 °F 40% 29.94 in 10.0 mi SSE 18.4 mph 21.9 mph N/A   Clear
1:15 AM 30.6 °F 19.4 °F 9.3 °F 41% 29.93 in 10.0 mi SSE 16.1 mph 21.9 mph N/A   Clear
1:35 AM 30.0 °F 19.1 °F 10.0 °F 43% 29.92 in 10.0 mi SSE 15.0 mph 20.7 mph N/A   Clear
1:55 AM 30.7 °F 19.6 °F 10.2 °F 42% 29.91 in 10.0 mi SSE 16.1 mph - N/A   Clear
2:15 AM 30.7 °F 18.8 °F 10.4 °F 43% 29.90 in 10.0 mi South 18.4 mph - N/A   Clear
2:35 AM 30.6 °F 19.0 °F 10.8 °F 44% 29.89 in 10.0 mi SSE 17.3 mph - N/A   Clear
2:55 AM 30.6 °F 19.4 °F 10.9 °F 44% 29.87 in 10.0 mi SSE 16.1 mph - N/A   Clear
3:15 AM 30.9 °F 19.4 °F 10.9 °F 43% 29.85 in 10.0 mi SSE 17.3 mph 24.2 mph N/A   Clear
3:35 AM 30.7 °F 19.6 °F 11.3 °F 44% 29.83 in 10.0 mi SSE 16.1 mph 20.7 mph N/A   Clear
3:55 AM 31.3 °F 19.5 °F 11.3 °F 44% 29.81 in 10.0 mi SSE 18.4 mph 21.9 mph N/A   Clear
4:15 AM 32.0 °F 20.5 °F 11.7 °F 43% 29.81 in 10.0 mi South 18.4 mph 24.2 mph N/A   Clear
4:35 AM 32.0 °F 20.8 °F 12.6 °F 45% 29.79 in 10.0 mi South 17.3 mph - N/A   Clear
4:55 AM 32.0 °F 20.8 °F 13.3 °F 46% 29.78 in 10.0 mi South 17.3 mph 27.6 mph N/A   Clear
5:15 AM 31.6 °F 20.0 °F 14.0 °F 48% 29.77 in 10.0 mi South 18.4 mph 25.3 mph N/A   Clear
5:35 AM 31.3 °F 19.5 °F 14.7 °F 50% 29.76 in 10.0 mi South 18.4 mph 25.3 mph N/A   Clear
5:55 AM 31.3 °F 19.2 °F 15.3 °F 52% 29.75 in 10.0 mi South 19.6 mph 26.5 mph N/A   Clear
6:15 AM 30.9 °F 19.1 °F 15.6 °F 53% 29.74 in 10.0 mi South 18.4 mph 25.3 mph N/A   Clear
6:35 AM 30.4 °F 18.7 °F 15.8 °F 55% 29.74 in 10.0 mi South 17.3 mph 21.9 mph N/A   Clear
6:55 AM 30.2 °F 18.9 °F 16.2 °F 56% 29.73 in 10.0 mi South 16.1 mph - N/A   Clear
7:15 AM 30.0 °F 18.3 °F 16.5 °F 57% 29.72 in 10.0 mi South 17.3 mph 23.0 mph N/A   Clear
7:35 AM 30.0 °F 18.3 °F 16.7 °F 58% 29.72 in 10.0 mi South 17.3 mph 23.0 mph N/A   Clear
7:55 AM 30.2 °F 18.1 °F 17.2 °F 59% 29.71 in 10.0 mi South 18.4 mph 23.0 mph N/A   Clear
8:15 AM 30.9 °F 19.4 °F 17.6 °F 58% 29.70 in 10.0 mi South 17.3 mph 21.9 mph N/A   Clear
8:35 AM 32.0 °F 20.5 °F 17.6 °F 55% 29.69 in 10.0 mi South 18.4 mph 23.0 mph N/A   Clear
8:55 AM 32.9 °F 20.1 °F 18.0 °F 54% 29.67 in 10.0 mi South 24.2 mph - N/A   Clear
9:15 AM 34.0 °F 22.4 °F 18.3 °F 53% 29.66 in 10.0 mi South 20.7 mph 32.2 mph N/A   Clear
9:35 AM 35.6 °F 24.2 °F 18.7 °F 50% 29.65 in 10.0 mi South 21.9 mph 28.8 mph N/A   Clear
9:55 AM 37.9 °F 27.3 °F 19.4 °F 47% 29.64 in 10.0 mi South 21.9 mph 29.9 mph N/A   Clear
10:15 AM 40.5 °F 30.0 °F 19.4 °F 43% 29.63 in 10.0 mi South 25.3 mph 29.9 mph N/A   Clear
10:35 AM 42.4 °F 32.2 °F 19.8 °F 40% 29.62 in 10.0 mi South 27.6 mph 33.4 mph N/A   Clear
10:55 AM 44.1 °F 35.0 °F 20.1 °F 39% 29.61 in 10.0 mi South 24.2 mph 32.2 mph N/A   Clear
11:15 AM 45.5 °F 36.3 °F 20.1 °F 36% 29.59 in 10.0 mi SSW 27.6 mph 34.5 mph N/A   Clear
11:35 AM 47.3 °F - 20.8 °F 35% 29.58 in 10.0 mi South 26.5 mph 34.5 mph N/A   Clear
11:55 AM 48.9 °F - 21.2 °F 34% 29.57 in 10.0 mi South 25.3 mph 32.2 mph N/A   Clear
12:15 PM 50.9 °F - 21.9 °F 32% 29.54 in 10.0 mi South 26.5 mph 33.4 mph N/A   Clear
12:35 PM 53.1 °F - 22.3 °F 30% 29.54 in 10.0 mi South 23.0 mph 31.1 mph N/A   Clear
12:55 PM 54.0 °F - 23.0 °F 30% 29.53 in 10.0 mi South 21.9 mph 34.5 mph N/A   Clear
1:15 PM 55.8 °F - 23.2 °F 28% 29.52 in 10.0 mi South 20.7 mph 31.1 mph N/A   Clear
1:35 PM 57.6 °F - 23.7 °F 27% 29.50 in 10.0 mi South 25.3 mph 34.5 mph N/A   Clear
1:55 PM 58.6 °F - 24.1 °F 27% 29.49 in 10.0 mi South 25.3 mph 31.1 mph N/A   Clear
2:15 PM 60.1 °F - 23.9 °F 25% 29.48 in 10.0 mi South 21.9 mph 31.1 mph N/A   Clear
2:35 PM 61.3 °F - 24.1 °F 24% 29.46 in 10.0 mi South 25.3 mph 32.2 mph N/A   Clear
2:55 PM 61.9 °F - 24.4 °F 24% 29.45 in 10.0 mi South 20.7 mph 31.1 mph N/A   Clear
3:35 PM 64.8 °F - 23.7 °F 21% 29.42 in 10.0 mi SSW 24.2 mph 31.1 mph N/A   Clear
3:55 PM 65.8 °F - 23.7 °F 20% 29.41 in 10.0 mi South 23.0 mph 31.1 mph N/A   Clear
4:15 PM 67.6 °F - 24.1 °F 19% 29.39 in 10.0 mi South 25.3 mph 31.1 mph N/A   Clear
4:35 PM 68.5 °F - 24.4 °F 19% 29.38 in 10.0 mi SSW 27.6 mph 35.7 mph N/A   Clear
4:55 PM 69.4 °F - 25.2 °F 19% 29.36 in 10.0 mi South 25.3 mph 34.5 mph N/A   Clear
5:15 PM 70.0 °F - 25.7 °F 19% 29.35 in 10.0 mi SSW 25.3 mph 29.9 mph N/A   Scattered Clouds
5:35 PM 70.7 °F - 26.8 °F 19% 29.34 in 10.0 mi South 21.9 mph 29.9 mph N/A   Mostly Cloudy
5:55 PM 69.8 °F - 29.3 °F 22% 29.33 in 10.0 mi South 24.2 mph 31.1 mph N/A   Mostly Cloudy
6:15 PM 68.9 °F - 31.1 °F 25% 29.33 in 10.0 mi South 25.3 mph 35.7 mph N/A   Overcast
6:35 PM 67.1 °F - 32.0 °F 27% 29.32 in 7.0 mi South 26.5 mph 38.0 mph N/A   Overcast
6:55 PM 65.5 °F - 32.4 °F 29% 29.32 in 10.0 mi South 23.0 mph 35.7 mph N/A   Overcast
7:15 PM 63.3 °F - 35.1 °F 35% 29.32 in 7.0 mi South 24.2 mph 34.5 mph N/A   Overcast
7:35 PM 61.0 °F - 37.0 °F 41% 29.33 in 10.0 mi South 31.1 mph 35.7 mph N/A   Overcast
7:55 PM 57.7 °F - 37.8 °F 47% 29.33 in 10.0 mi South 24.2 mph 31.1 mph N/A   Overcast
8:15 PM 55.9 °F - 38.1 °F 51% 29.34 in 10.0 mi South 23.0 mph 35.7 mph N/A   Scattered Clouds
8:35 PM 54.1 °F - 38.3 °F 55% 29.35 in 10.0 mi South 16.1 mph 28.8 mph N/A   Clear
8:55 PM 51.8 °F - 38.3 °F 60% 29.36 in 10.0 mi South 21.9 mph 29.9 mph N/A   Clear
9:15 PM 50.0 °F - 38.7 °F 65% 29.37 in 10.0 mi South 19.6 mph 26.5 mph N/A   Clear
9:35 PM 49.1 °F - 39.0 °F 68% 29.38 in 10.0 mi South 17.3 mph - N/A   Clear
9:55 PM 48.2 °F - 39.2 °F 71% 29.39 in 10.0 mi South 19.6 mph 24.2 mph N/A   Clear
10:15 PM 48.2 °F - 39.4 °F 72% 29.39 in 10.0 mi South 16.1 mph 25.3 mph N/A   Mostly Cloudy
10:35 PM 47.7 °F - 39.4 °F 73% 29.39 in 10.0 mi South 17.3 mph 27.6 mph N/A   Overcast
10:55 PM 48.2 °F - 39.7 °F 73% 29.39 in 10.0 mi South 19.6 mph 25.3 mph N/A   Overcast
11:15 PM 48.4 °F - 39.9 °F 73% 29.38 in 10.0 mi South 20.7 mph 27.6 mph N/A Thunderstorm Overcast
11:35 PM 48.2 °F - 40.1 °F 74% 29.38 in 10.0 mi South 23.0 mph 27.6 mph N/A   Overcast
11:55 PM 48.2 °F - 40.1 °F 74% 29.38 in 10.0 mi South 19.6 mph 29.9 mph N/A   Overcast